Location: Marne
(34.0056°N, 117.9064°W)
Time: 03:24:30
(UTC+00:00)

Cosmos 2154 Rocket - Pass Details

Date: 18 January 2020
Orbit: 965 x 997 km, 82.9° (Epoch: 16 February)

Event Time Altitude Azimuth Distance (km) Brightness Sun altitude
Rises 01:20:43 0° 166° (SSE) 3,692 7.2 -3.4°
Reaches altitude 10° 01:23:21 10° 160° (SSE) 2,743 6.4 -3.9°
Maximum altitude 01:29:16 45° 90° (E) 1,325 4.4 -5.0°
Drops below altitude 10° 01:35:10 10° 20° (NNE) 2,737 6.0 -6.2°
Sets 01:37:46 0° 15° (NNE) 3,684 6.7 -6.7°
